Location: North Evanston
(42.0634°N, 87.6976°W)
Time: 14:32:50
(UTC+00:00)

Vanguard 3 - Pass Details

Date: 11 May 2026
Orbit: 507 x 3204 km, 33.3° (Epoch: 6 June)

Event Time Altitude Azimuth Distance (km) Brightness Sun altitude
Rises 01:34:00 0° 276° (W) 6,692 13.2 -6.4°
Reaches altitude 10° 01:39:19 10° 270° (W) 5,330 12.3 -7.3°
Maximum altitude 01:52:07 39° 210° (SSW) 2,538 9.6 -9.3°
Enters shadow 01:59:55 10° 145° (SE) 3,265 9.6 -10.4°
Drops below altitude 10° 01:59:59 10° 145° (SE) 3,279 - -10.5°
Sets 02:02:28 0° 137° (SE) 3,949 - -10.8°
